Flag for U.S.A. Weather past 2 weeks in Atlanta, Georgia, U.S.A.

Now
86 °F

Sunny.


Feels Like: 86 °F
Forecast: 69 / 90 °F
Wind: 7 mph from Northwest

Location: Fulton County Airport-Brown Field

Current Time: Jul 26, 2014 at 1:51:37 PM

Latest Report: Jul 26, 2014 at 12:53 PM


Visibility: 10 mi

Pressure: 30.04 "Hg

Humidity: 43%

Dew point: 61 °F

Location of AtlantaLocation

Historic Weather in Atlanta — Graph

°F

Atlanta temperature yesterday

Maximum temperature yesterday: 88 °F (at 5:53 PM)
Minimum temperature yesterday: 68 °F (at 5:53 AM)
Average temperature yesterday: 78 °F

Past Weeks' High & Low Weather Summary

 TemperatureHumidityPressure
High91 °F (Jul 13, 3:53 PM)97% (Jul 20, 5:53 AM)30.21 "Hg (Jul 20, 5:53 AM)
Low59 °F (Jul 17, 6:53 AM)33% (Jul 16, 4:53 PM)29.82 "Hg (Jul 15, 6:53 PM)
Average76 °F77%30.02 "Hg
* Reported Jul 11 12:53 PM — Jul 26 12:53 PM, Atlanta, Weather by CustomWeather, © 2014

Note: Actual official high and low records may vary slightly from our data, if they occured in-between our weather recording intervals... More about our weather records

Advertising

Atlanta weather history for previous 24 hours

 ConditionsComfort  
Time TempWeatherWind HumidityBarometerVisibility
12:53 PM
Jul 26
86 °FSunny.7 mph43%30.04 "Hg10 mi
11:53 AM85 °FSunny.10 mph50%30.04 "Hg10 mi
10:53 AM83 °FSunny.10 mph55%30.05 "Hg10 mi
9:53 AM79 °FSunny.3 mph67%30.04 "Hg10 mi
8:53 AM75 °FSunny.No wind76%30.03 "Hg10 mi
7:53 AM69 °FSunny.No wind90%30.03 "Hg8 mi
6:53 AM66 °FFog.No wind93%30.01 "Hg6 mi
5:53 AM67 °FClear.No wind93%30.00 "Hg10 mi
4:53 AM67 °FClear.No wind93%29.99 "Hg9 mi
3:53 AM68 °FClear.No wind90%29.99 "Hg9 mi
2:53 AM69 °FClear.No wind90%29.99 "Hg10 mi
1:53 AM70 °FClear.No wind90%30.01 "Hg10 mi
12:53 AM71 °FClear.No wind87%30.02 "Hg10 mi
11:53 PM
Jul 25
71 °FClear.No wind90%30.01 "Hg10 mi
10:53 PM73 °FClear.No wind88%29.99 "Hg10 mi
9:53 PM75 °FClear.No wind79%29.97 "Hg10 mi
8:53 PM79 °FSunny.No wind69%29.96 "Hg10 mi
7:53 PM85 °FSunny.No wind53%29.97 "Hg10 mi
6:53 PM87 °FSunny.6 mph46%29.96 "Hg10 mi
5:53 PM88 °FSunny.12 mph48%29.96 "Hg10 mi
4:53 PM86 °FPassing clouds.6 mph53%29.96 "Hg10 mi
3:53 PM87 °FPassing clouds.6 mph50%29.96 "Hg10 mi
2:53 PM86 °FPassing clouds.7 mph49%29.98 "Hg10 mi
1:53 PM85 °FPartly sunny.6 mph55%30.00 "Hg10 mi
Weather by CustomWeather, © 2014

See weather overviewHow to use our weather pages